CFI025 ZBTJ-ZSSS

Flight info

Callsign CFI025
Flight time N/A
Altitude 100
Route ELKUR W40 YQG W142 DALIM A593 VMB W16 1SASAN
Aircraft C750/M-SDE2E3FGHIJ1RWXY/LB1

Departure

Time 2026-04-28 01:38
Airport Tianjin Binhai International Airport (ZBTJ)

Arrival

Time N/A
Airport Shanghai Hongqiao International Airport (ZSSS)
Time Latitude Longitude Altitude Speed Heading
2026-04-28 01:18 39.12408 117.36180 15 ft 0 kts 153°
2026-04-28 01:30 39.12407 117.36180 15 ft 1 kts 155°
2026-04-28 01:30 39.12400 117.36184 15 ft 0 kts 156°
2026-04-28 01:30 39.12395 117.36187 15 ft 1 kts 153°
2026-04-28 01:31 39.12377 117.36198 15 ft 5 kts 154°
2026-04-28 01:31 39.12362 117.36223 15 ft 4 kts 104°
2026-04-28 01:31 39.12366 117.36257 15 ft 6 kts 67°
2026-04-28 01:31 39.12393 117.36334 15 ft 13 kts 65°
2026-04-28 01:32 39.12435 117.36446 15 ft 13 kts 82°
2026-04-28 01:32 39.12408 117.36510 15 ft 7 kts 156°
2026-04-28 01:32 39.12364 117.36536 15 ft 7 kts 154°
2026-04-28 01:32 39.12334 117.36574 15 ft 5 kts 106°
2026-04-28 01:33 39.12352 117.36650 15 ft 14 kts 69°
2026-04-28 01:33 39.12410 117.36808 15 ft 21 kts 66°
2026-04-28 01:33 39.12471 117.36972 15 ft 18 kts 63°
2026-04-28 01:33 39.12452 117.37064 15 ft 10 kts 149°
2026-04-28 01:34 39.12395 117.37100 15 ft 8 kts 154°
2026-04-28 01:34 39.12330 117.37139 15 ft 14 kts 154°
2026-04-28 01:34 39.12242 117.37193 15 ft 14 kts 155°
2026-04-28 01:34 39.12149 117.37252 15 ft 17 kts 154°
2026-04-28 01:35 39.12029 117.37325 15 ft 21 kts 154°
2026-04-28 01:35 39.11898 117.37404 15 ft 20 kts 154°
2026-04-28 01:35 39.11778 117.37478 15 ft 18 kts 155°
2026-04-28 01:35 39.11669 117.37545 15 ft 17 kts 154°
2026-04-28 01:36 39.11570 117.37606 15 ft 15 kts 154°
2026-04-28 01:36 39.11500 117.37661 15 ft 8 kts 119°
2026-04-28 01:36 39.11505 117.37716 15 ft 5 kts 65°
2026-04-28 01:36 39.11518 117.37753 15 ft 4 kts 64°
2026-04-28 01:37 39.11545 117.37813 15 ft 11 kts 43°
2026-04-28 01:37 39.11613 117.37815 14 ft 8 kts 328°
2026-04-28 01:37 39.11618 117.37811 14 ft 0 kts 332°
2026-04-28 01:38 39.11682 117.37771 13 ft 33 kts 334°
2026-04-28 01:38 39.12210 117.37448 18 ft 128 kts 335°
2026-04-28 01:38 39.13135 117.36887 280 ft 149 kts 335°
2026-04-28 01:38 39.14078 117.36361 999 ft 145 kts 336°
2026-04-28 01:39 39.15106 117.35954 1127 ft 173 kts 355°
2026-04-28 01:39 39.16284 117.36565 417 ft 199 kts 45°
2026-04-28 01:39 39.17052 117.38033 399 ft 204 kts 65°
2026-04-28 01:39 39.17234 117.39857 397 ft 209 kts 96°
2026-04-28 01:40 39.16670 117.41571 369 ft 212 kts 128°
2026-04-28 01:40 39.15592 117.42842 437 ft 210 kts 141°
2026-04-28 01:40 39.14449 117.44069 519 ft 218 kts 139°
2026-04-28 01:40 39.13359 117.45359 1391 ft 209 kts 137°
2026-04-28 01:41 39.12278 117.46642 2073 ft 214 kts 138°
2026-04-28 01:41 39.11164 117.47944 2758 ft 218 kts 138°
2026-04-28 01:41 39.10148 117.49411 3298 ft 227 kts 118°
2026-04-28 01:41 39.09859 117.51385 3972 ft 223 kts 91°
2026-04-28 01:42 39.09793 117.53362 4784 ft 222 kts 90°
2026-04-28 01:42 39.09689 117.55414 4973 ft 238 kts 91°
2026-04-28 01:42 39.09564 117.57624 4948 ft 265 kts 91°
2026-04-28 01:42 39.09433 117.60043 4936 ft 274 kts 91°
2026-04-28 01:43 39.09298 117.62509 5351 ft 276 kts 91°
2026-04-28 01:43 39.09166 117.64920 6547 ft 270 kts 91°
2026-04-28 01:43 39.09025 117.67401 7359 ft 278 kts 93°
2026-04-28 01:43 39.08366 117.69783 8099 ft 292 kts 123°
2026-04-28 01:44 39.06891 117.71523 9018 ft 297 kts 150°
2026-04-28 01:44 39.04902 117.72205 9797 ft 299 kts 180°
2026-04-28 01:44 39.02832 117.72049 10601 ft 299 kts 189°
2026-04-28 01:44 39.00773 117.71666 11325 ft 299 kts 199°
2026-04-28 01:45 38.98981 117.70415 11915 ft 295 kts 224°
2026-04-28 01:45 38.97681 117.68323 11918 ft 311 kts 248°
2026-04-28 01:45 38.97053 117.65606 11988 ft 326 kts 262°
2026-04-28 01:45 38.96663 117.62735 12784 ft 323 kts 264°
2026-04-28 01:46 38.96268 117.59899 13624 ft 323 kts 262°
2026-04-28 01:46 38.95826 117.57071 14341 ft 323 kts 262°
2026-04-28 01:46 38.95382 117.54229 14983 ft 325 kts 262°
2026-04-28 01:46 38.94957 117.51377 15626 ft 325 kts 263°
2026-04-28 01:47 38.94532 117.48521 16294 ft 327 kts 263°
2026-04-28 01:47 38.94095 117.45649 16979 ft 328 kts 263°
2026-04-28 01:47 38.93654 117.42772 17680 ft 329 kts 263°
2026-04-28 01:47 38.93214 117.39877 18404 ft 331 kts 263°
2026-04-28 01:48 38.92748 117.36972 19018 ft 334 kts 261°
2026-04-28 01:48 38.92014 117.34137 19600 ft 333 kts 254°
2026-04-28 01:48 38.91004 117.31385 19712 ft 348 kts 248°
2026-04-28 01:48 38.89860 117.28668 19717 ft 343 kts 249°
2026-04-28 01:49 38.88763 117.25978 19829 ft 339 kts 249°
2026-04-28 01:49 38.87675 117.23266 19952 ft 347 kts 249°
2026-04-28 01:49 38.86553 117.20525 20640 ft 346 kts 249°
2026-04-28 01:49 38.85426 117.17803 21308 ft 347 kts 249°
2026-04-28 01:50 38.84296 117.15047 21922 ft 349 kts 249°
2026-04-28 01:50 38.83165 117.12281 22558 ft 351 kts 249°
2026-04-28 01:50 38.82024 117.09504 23181 ft 353 kts 249°
2026-04-28 01:50 38.80874 117.06713 23803 ft 355 kts 249°
2026-04-28 01:51 38.79720 117.03913 24359 ft 355 kts 249°
2026-04-28 01:51 38.78568 117.01120 24995 ft 354 kts 249°
2026-04-28 01:51 38.77422 116.98342 25608 ft 353 kts 249°
2026-04-28 01:51 38.76276 116.95563 26215 ft 352 kts 249°
2026-04-28 01:52 38.75132 116.92794 26831 ft 351 kts 249°
2026-04-28 01:52 38.73976 116.90036 27434 ft 351 kts 249°
2026-04-28 01:52 38.72803 116.87295 28039 ft 351 kts 249°
2026-04-28 01:52 38.71632 116.84544 28647 ft 351 kts 249°
2026-04-28 01:53 38.70375 116.81842 29221 ft 356 kts 245°
2026-04-28 01:53 38.68921 116.79255 29810 ft 360 kts 241°
2026-04-28 01:53 38.67283 116.76799 30351 ft 366 kts 237°
2026-04-28 01:53 38.65457 116.74487 30768 ft 373 kts 233°
2026-04-28 01:54 38.63437 116.72338 31164 ft 383 kts 229°
2026-04-28 01:54 38.61262 116.70414 31702 ft 387 kts 225°
2026-04-28 01:54 38.58907 116.68701 32207 ft 393 kts 221°
2026-04-28 01:54 38.56394 116.67242 32710 ft 401 kts 217°
2026-04-28 01:55 38.53729 116.66062 33227 ft 409 kts 212°
2026-04-28 01:55 38.50933 116.65191 33766 ft 419 kts 207°
2026-04-28 01:55 38.47978 116.64652 34339 ft 429 kts 202°
2026-04-28 01:55 38.45002 116.64331 34794 ft 429 kts 201°
2026-04-28 01:56 38.42064 116.63991 35179 ft 430 kts 202°
2026-04-28 01:56 38.39080 116.63632 35578 ft 431 kts 202°
2026-04-28 01:56 38.36087 116.63289 36005 ft 433 kts 201°
2026-04-28 01:56 38.33076 116.62981 36400 ft 439 kts 200°
2026-04-28 01:57 38.29956 116.63028 36775 ft 457 kts 192°
2026-04-28 01:57 38.26744 116.63548 37201 ft 474 kts 185°
2026-04-28 01:57 38.23469 116.64566 37314 ft 497 kts 179°
2026-04-28 01:57 38.20117 116.65842 37327 ft 508 kts 178°
2026-04-28 01:58 38.13208 116.68400 37345 ft 527 kts 178°
2026-04-28 01:58 38.06063 116.71087 37339 ft 544 kts 176°
2026-04-28 01:59 37.98761 116.73915 37337 ft 551 kts 176°
2026-04-28 01:59 37.91398 116.76685 37332 ft 552 kts 176°
2026-04-28 02:00 37.84060 116.79494 37316 ft 550 kts 176°
2026-04-28 02:00 37.76727 116.82250 37316 ft 550 kts 176°
2026-04-28 02:01 37.69399 116.85033 37316 ft 550 kts 176°
2026-04-28 02:01 37.62074 116.87786 37315 ft 549 kts 176°
2026-04-28 02:02 37.54762 116.90542 37316 ft 548 kts 176°
2026-04-28 02:02 37.47504 116.93266 37324 ft 547 kts 176°
2026-04-28 02:03 37.40196 116.96005 37319 ft 547 kts 176°
2026-04-28 02:03 37.32904 116.98733 37317 ft 547 kts 176°
2026-04-28 02:04 37.25643 117.01812 37318 ft 555 kts 171°
2026-04-28 02:04 37.18414 117.05228 37308 ft 554 kts 172°
2026-04-28 02:05 37.11190 117.08580 37308 ft 554 kts 172°
2026-04-28 02:05 37.03973 117.11966 37307 ft 553 kts 172°
2026-04-28 02:06 36.96767 117.15307 37307 ft 553 kts 172°
2026-04-28 02:06 36.89554 117.18668 37308 ft 552 kts 171°
2026-04-28 02:07 36.82301 117.21139 37304 ft 527 kts 184°
2026-04-28 02:07 36.78694 117.21550 37298 ft 515 kts 191°
2026-04-28 02:07 36.75141 117.21544 37308 ft 509 kts 193°
2026-04-28 02:08 36.69246 117.21492 37312 ft 511 kts 192°
2026-04-28 02:08 36.60938 117.21448 37297 ft 510 kts 193°
2026-04-28 02:09 36.53836 117.21387 37279 ft 511 kts 192°
2026-04-28 02:09 36.47933 117.21355 37280 ft 511 kts 192°
2026-04-28 02:10 36.40655 117.21963 37283 ft 531 kts 181°
2026-04-28 02:10 36.37020 117.23066 37286 ft 543 kts 175°
2026-04-28 02:10 36.33401 117.24436 37300 ft 544 kts 174°
2026-04-28 02:11 36.26162 117.27112 37305 ft 543 kts 175°
2026-04-28 02:11 36.18925 117.29802 37294 ft 543 kts 174°
2026-04-28 02:12 36.11697 117.32478 37282 ft 542 kts 174°
2026-04-28 02:12 36.04465 117.35148 37287 ft 542 kts 174°
2026-04-28 02:13 35.97246 117.37820 37280 ft 542 kts 174°
2026-04-28 02:13 35.90026 117.40540 37282 ft 542 kts 174°
2026-04-28 02:14 35.82809 117.43232 37281 ft 541 kts 174°
2026-04-28 02:14 35.75615 117.45919 37281 ft 540 kts 174°
2026-04-28 02:15 35.64818 117.49936 37281 ft 540 kts 173°
2026-04-28 02:16 35.57627 117.52609 37275 ft 540 kts 173°
2026-04-28 02:16 35.50494 117.55252 37275 ft 539 kts 173°
2026-04-28 02:17 35.43322 117.57906 37276 ft 538 kts 173°
2026-04-28 02:17 35.36160 117.60551 37281 ft 537 kts 173°
2026-04-28 02:18 35.29012 117.63186 37279 ft 536 kts 173°
2026-04-28 02:18 35.21869 117.65815 37286 ft 535 kts 173°
2026-04-28 02:19 35.14740 117.68432 37278 ft 535 kts 173°
2026-04-28 02:19 35.07619 117.71044 37278 ft 534 kts 173°
2026-04-28 02:20 35.00503 117.73651 37269 ft 534 kts 173°
2026-04-28 02:20 34.93388 117.76256 37275 ft 534 kts 173°
2026-04-28 02:21 34.86273 117.78853 37274 ft 534 kts 172°
2026-04-28 02:21 34.79136 117.81465 37274 ft 536 kts 172°
2026-04-28 02:22 34.71990 117.84027 37272 ft 536 kts 173°
2026-04-28 02:22 34.64854 117.86598 37266 ft 534 kts 172°
2026-04-28 02:23 34.57740 117.89149 37269 ft 533 kts 172°
2026-04-28 02:23 34.50619 117.91699 37271 ft 533 kts 172°
2026-04-28 02:24 34.43503 117.94246 37265 ft 534 kts 172°
2026-04-28 02:24 34.36386 117.96785 37261 ft 533 kts 172°
2026-04-28 02:25 34.29313 117.99535 37247 ft 541 kts 165°
2026-04-28 02:25 34.22737 118.04251 37269 ft 558 kts 150°
2026-04-28 02:26 34.16518 118.09746 37280 ft 557 kts 151°
2026-04-28 02:26 34.10219 118.15179 37273 ft 557 kts 151°
2026-04-28 02:27 34.03952 118.20678 37260 ft 557 kts 151°
2026-04-28 02:27 33.97670 118.26123 37255 ft 557 kts 151°
2026-04-28 02:28 33.91406 118.31621 37257 ft 558 kts 150°
2026-04-28 02:28 33.85134 118.37126 37247 ft 557 kts 150°
2026-04-28 02:29 33.78859 118.42601 37250 ft 558 kts 150°
2026-04-28 02:29 33.72587 118.48088 37250 ft 558 kts 150°
2026-04-28 02:30 33.66293 118.53562 37245 ft 558 kts 150°
2026-04-28 02:30 33.60013 118.59032 37247 ft 559 kts 150°
2026-04-28 02:31 33.53713 118.64496 37246 ft 559 kts 150°
2026-04-28 02:31 33.47416 118.69955 37246 ft 558 kts 150°
2026-04-28 02:32 33.41128 118.75410 37242 ft 558 kts 150°
2026-04-28 02:32 33.34842 118.80867 37238 ft 558 kts 150°
2026-04-28 02:33 33.28551 118.86307 37246 ft 558 kts 150°
2026-04-28 02:33 33.22290 118.91792 37241 ft 558 kts 150°
2026-04-28 02:34 33.16017 118.97245 37238 ft 557 kts 150°
2026-04-28 02:34 33.09736 119.02654 37238 ft 557 kts 150°
2026-04-28 02:35 33.03481 119.08068 37233 ft 555 kts 150°
2026-04-28 02:35 32.97249 119.13422 37231 ft 555 kts 150°
2026-04-28 02:36 32.91003 119.18819 37228 ft 555 kts 150°
2026-04-28 02:36 32.84782 119.24285 37226 ft 557 kts 150°
2026-04-28 02:37 32.78538 119.29700 37228 ft 555 kts 150°
2026-04-28 02:37 32.72306 119.35131 37228 ft 555 kts 150°
2026-04-28 02:38 32.66071 119.40535 37218 ft 554 kts 150°
2026-04-28 02:38 32.59842 119.45933 37222 ft 554 kts 150°
2026-04-28 02:39 32.53613 119.51321 37218 ft 554 kts 150°
2026-04-28 02:39 32.47421 119.56669 36613 ft 544 kts 150°
2026-04-28 02:39 32.44502 119.59208 35932 ft 509 kts 151°
2026-04-28 02:40 32.41653 119.61632 35266 ft 499 kts 152°
2026-04-28 02:40 32.38848 119.63992 34613 ft 491 kts 152°
2026-04-28 02:40 32.36092 119.66346 33953 ft 486 kts 152°
2026-04-28 02:40 32.33369 119.68690 33304 ft 484 kts 152°
2026-04-28 02:41 32.30629 119.71024 32665 ft 487 kts 152°
2026-04-28 02:41 32.27864 119.73363 32028 ft 491 kts 152°
2026-04-28 02:41 32.25085 119.75729 31372 ft 494 kts 151°
2026-04-28 02:41 32.22301 119.78113 30716 ft 495 kts 151°
2026-04-28 02:42 32.19515 119.80502 30040 ft 493 kts 151°
2026-04-28 02:42 32.16761 119.82861 29365 ft 485 kts 151°
2026-04-28 02:42 32.14035 119.85183 28725 ft 482 kts 150°
2026-04-28 02:42 32.11328 119.87484 28092 ft 478 kts 150°
2026-04-28 02:43 32.08646 119.89772 27465 ft 474 kts 150°
2026-04-28 02:43 32.05978 119.92048 26842 ft 471 kts 150°
2026-04-28 02:43 32.03339 119.94294 26226 ft 467 kts 150°
2026-04-28 02:43 32.00717 119.96543 25609 ft 464 kts 149°
2026-04-28 02:44 31.98126 119.98787 25000 ft 461 kts 149°
2026-04-28 02:44 31.95547 120.01011 24395 ft 457 kts 149°
2026-04-28 02:44 31.92999 120.03191 23792 ft 445 kts 149°
2026-04-28 02:44 31.90568 120.05281 23092 ft 422 kts 149°
2026-04-28 02:45 31.88221 120.07295 22384 ft 421 kts 150°
2026-04-28 02:45 31.85804 120.09343 21717 ft 434 kts 150°
2026-04-28 02:45 31.83362 120.11434 21090 ft 433 kts 149°
2026-04-28 02:45 31.80950 120.13520 20486 ft 427 kts 149°
2026-04-28 02:46 31.78562 120.15565 19893 ft 422 kts 150°
2026-04-28 02:46 31.76196 120.17575 19318 ft 418 kts 150°
2026-04-28 02:46 31.73850 120.19574 18745 ft 418 kts 150°
2026-04-28 02:46 31.71480 120.21564 18148 ft 417 kts 150°
2026-04-28 02:47 31.69122 120.23495 17513 ft 409 kts 151°
2026-04-28 02:47 31.66795 120.25360 16908 ft 401 kts 151°
2026-04-28 02:47 31.64503 120.27152 16320 ft 393 kts 152°
2026-04-28 02:47 31.62261 120.28864 15743 ft 386 kts 152°
2026-04-28 02:48 31.60010 120.30539 15191 ft 381 kts 153°
2026-04-28 02:48 31.57766 120.32164 14640 ft 377 kts 153°
2026-04-28 02:48 31.55533 120.33735 14112 ft 372 kts 154°
2026-04-28 02:48 31.53344 120.35235 13546 ft 356 kts 154°
2026-04-28 02:49 31.51213 120.36657 12958 ft 354 kts 155°
2026-04-28 02:49 31.49039 120.38056 12398 ft 356 kts 155°
2026-04-28 02:49 31.46904 120.39389 11852 ft 340 kts 156°
2026-04-28 02:49 31.44843 120.40639 11310 ft 327 kts 156°
2026-04-28 02:50 31.42845 120.41813 10777 ft 316 kts 157°
2026-04-28 02:50 31.40899 120.42916 10255 ft 306 kts 158°
2026-04-28 02:50 31.38996 120.43954 9796 ft 295 kts 159°
2026-04-28 02:50 31.37180 120.44909 9458 ft 281 kts 159°
2026-04-28 02:51 31.35379 120.45813 8749 ft 283 kts 160°
2026-04-28 02:51 31.33568 120.46678 8187 ft 279 kts 160°
2026-04-28 02:51 31.32371 120.47226 7775 ft 279 kts 161°
2026-04-28 02:51 31.29963 120.48269 7023 ft 276 kts 161°